Change the Weather History Date:

Tuesday, June 18, 2013

  Actual Average Record
Temperature  
Mean Temperature 75 °F 73 °F  
Max Temperature 87 °F 84 °F 96 °F (1988)
Min Temperature 63 °F 63 °F 45 °F (1960)
Degree Days  
Heating Degree Days 0 0  
Month to date heating degree days 7 11  
Since 1 June heating degree days 7 11  
Since 1 July heating degree days 5295 5366  
Cooling Degree Days 10 8  
Month to date cooling degree days 107 119  
Year to date cooling degree days 221 205  
Since 1 June cooling degree days 107 119  
Growing Degree Days 24 (Base 50)    
Moisture  
Dew Point 63 °F    
Average Humidity 66    
Maximum Humidity 87    
Minimum Humidity 44    
Precipitation  
Precipitation 0.70 in 0.11 in 1.46 in (2006)
Month to date precipitation 2.95 2.94  
Year to date precipitation 23.98 21.38  
Sea Level Pressure  
Sea Level Pressure 29.93 in    
Wind  
Wind Speed 4 mph (West)    
Max Wind Speed 23 mph    
Max Gust Speed 28 mph    
Visibility 9 miles    
Events Rain , Thunderstorm    
T = Trace of Precipitation, MM = Missing Value Source: NWS Daily Summary

Daily Weather History Graph

Daily Weather History Graph

Search for Another Location

Airport or City:

Trip Planner

Search our weather history database for the weather conditions in past years. The results will help you decide how hot, cold, wet, or windy it might be!

Date:

Astronomy

Jun. 18, 2013 Rise Set
Actual Time 6:21 AM EDT 9:19 PM EDT
Civil Twilight 5:49 AM EDT 9:51 PM EDT
Nautical Twilight 5:08 AM EDT 10:32 PM EDT
Astronomical Twilight 4:20 AM EDT 11:20 PM EDT
Moon 4:04 PM EDT (6/18) 2:28 AM EDT (6/18)
Length of Visible Light 16h 02m
Length of Day
14h 57m
Waxing Gibbous, 70% of the Moon is Illuminated
Jun 18
Waxing Gibbous
Jun 23
Full
Jun 30
Last Quarter
Jul 8
New
Jul 15
First Quarter

Hourly Weather History & Observations

Time (EDT) Temp. Heat Index Dew Point Humidity Pressure Visibility Wind Dir Wind Speed Gust Speed Precip Events Conditions
12:53 AM 68.0 °F - 63.0 °F 84% 29.92 in 10.0 mi Calm Calm - N/A   Clear
1:53 AM 68.0 °F - 63.0 °F 84% 29.90 in 10.0 mi Calm Calm - N/A   Clear
2:53 AM 66.9 °F - 63.0 °F 87% 29.90 in 10.0 mi Calm Calm - N/A   Clear
3:53 AM 66.9 °F - 62.1 °F 84% 29.89 in 10.0 mi NW 4.6 mph - N/A   Clear
4:53 AM 64.9 °F - 61.0 °F 87% 29.91 in 10.0 mi South 3.5 mph - N/A   Clear
5:53 AM 64.0 °F - 61.0 °F 90% 29.91 in 8.0 mi Calm Calm - N/A   Clear
6:53 AM 64.0 °F - 61.0 °F 90% 29.92 in 8.0 mi SW 3.5 mph - N/A   Clear
7:53 AM 66.0 °F - 63.0 °F 90% 29.94 in 8.0 mi Calm Calm - N/A   Partly Cloudy
8:53 AM 70.0 °F - 63.0 °F 78% 29.94 in 10.0 mi NW 5.8 mph - N/A   Clear
9:53 AM 73.9 °F - 63.0 °F 68% 29.93 in 10.0 mi NW 4.6 mph - N/A   Clear
10:53 AM 77.0 °F - 63.0 °F 62% 29.92 in 10.0 mi Calm Calm - N/A   Clear
11:53 AM 80.1 °F 81.7 °F 64.0 °F 58% 29.93 in 10.0 mi Variable 4.6 mph - N/A   Clear
12:53 PM 82.9 °F 84.0 °F 63.0 °F 51% 29.92 in 10.0 mi Calm Calm - N/A   Clear
1:53 PM 84.0 °F 84.4 °F 61.0 °F 46% 29.91 in 10.0 mi North 4.6 mph - N/A   Clear
2:53 PM 84.9 °F 85.4 °F 62.1 °F 46% 29.91 in 10.0 mi North 3.5 mph - N/A   Clear
3:53 PM 84.9 °F 85.0 °F 61.0 °F 44% 29.89 in 10.0 mi NE 4.6 mph - N/A   Partly Cloudy
4:22 PM 84.2 °F 84.4 °F 60.8 °F 45% 29.89 in 10.0 mi NNE 4.6 mph - N/A Thunderstorm Scattered Clouds
4:37 PM 82.4 °F 82.9 °F 60.8 °F 48% 29.89 in 10.0 mi Calm Calm - N/A   Partly Cloudy
4:53 PM 82.0 °F 82.7 °F 61.0 °F 49% 29.88 in 10.0 mi NE 3.5 mph - N/A   Clear
5:18 PM 80.6 °F 82.3 °F 64.4 °F 58% 29.90 in 10.0 mi Calm Calm - N/A Thunderstorm Clear
5:33 PM 73.4 °F - 60.8 °F 65% 29.91 in 10.0 mi WSW 20.7 mph 27.6 mph N/A Thunderstorm Clear
5:44 PM 71.6 °F - 59.0 °F 64% 29.92 in 10.0 mi WSW 15.0 mph 21.9 mph N/A Thunderstorm Scattered Clouds
5:53 PM 71.1 °F - 60.1 °F 68% 29.94 in 10.0 mi West 18.4 mph 25.3 mph N/A Thunderstorm Mostly Cloudy
6:13 PM 68.0 °F - 62.6 °F 83% 29.94 in 1.8 mi North 8.1 mph 25.3 mph 0.16 in Rain , Thunderstorm Heavy Thunderstorms and Rain
6:33 PM 69.8 °F - 64.4 °F 83% 29.92 in 2.5 mi SSW 8.1 mph - 0.28 in Rain , Thunderstorm Light Thunderstorms and Rain
6:40 PM 71.6 °F - 66.2 °F 83% 29.92 in 10.0 mi SW 5.8 mph - 0.28 in Rain , Thunderstorm Light Thunderstorms and Rain
6:50 PM 71.6 °F - 66.2 °F 83% 29.91 in 10.0 mi SW 6.9 mph - 0.28 in   Scattered Clouds
6:53 PM 73.0 °F - 66.0 °F 79% 29.91 in 10.0 mi SW 5.8 mph - 0.28 in   Partly Cloudy
7:53 PM 72.0 °F - 64.9 °F 78% 29.92 in 10.0 mi South 3.5 mph - N/A   Clear
8:50 PM 71.6 °F - 66.2 °F 83% 29.94 in 10.0 mi Calm Calm - N/A Thunderstorm Partly Cloudy
8:53 PM 71.1 °F - 66.0 °F 84% 29.94 in 10.0 mi Calm Calm - N/A Thunderstorm Partly Cloudy
9:53 PM 66.9 °F - 64.0 °F 90% 29.96 in 5.0 mi SSE 4.6 mph - 0.10 in Rain , Thunderstorm Rain
10:12 PM 66.2 °F - 62.6 °F 88% 29.97 in 10.0 mi South 5.8 mph - 0.01 in Rain Light Rain
10:53 PM 66.9 °F - 62.1 °F 84% 29.99 in 10.0 mi WNW 8.1 mph - 0.02 in Rain , Thunderstorm Light Rain
11:06 PM 66.2 °F - 62.6 °F 88% 30.01 in 1.8 mi West 9.2 mph - 0.21 in Rain , Thunderstorm Heavy Rain
11:13 PM 66.2 °F - 62.6 °F 88% 30.01 in 1.5 mi WSW 10.4 mph - 0.28 in Rain Heavy Rain
11:17 PM 66.2 °F - 64.4 °F 94% 30.01 in 3.0 mi SW 6.9 mph - 0.29 in Rain Rain
11:23 PM 66.2 °F - 64.4 °F 94% 30.01 in 5.0 mi NNE 5.8 mph - 0.29 in Rain , Thunderstorm Thunderstorms and Rain
11:53 PM 66.0 °F - 63.0 °F 90% 29.99 in 10.0 mi ESE 4.6 mph - 0.30 in Thunderstorm Overcast